Weather History for Kill Devil Hills, NC

Change the Weather History Date:

Sunday, October 28, 2012

  Actual Average (KMQI) Record (KMQI)
Temperature  
Mean Temperature 60 °F -  
Max Temperature 63 °F 65 °F 83 °F (1984)
Min Temperature 58 °F 54 °F 34 °F (1979)
Degree Days  
Heating Degree Days 4    
Growing Degree Days 10 (Base 50)    
Moisture  
Dew Point 60 °F    
Average Humidity 96    
Maximum Humidity 97    
Minimum Humidity 94    
Precipitation  
Precipitation 0.00 in - - ()
Sea Level Pressure  
Sea Level Pressure 29.37 in    
Wind  
Wind Speed 22 mph (North)    
Max Wind Speed 28 mph    
Max Gust Speed 48 mph    
Visibility 3 miles    
Events Rain    
Averages and records for this station are not official NWS values.
T = Trace of Precipitation, MM = Missing Value Source: NWS Daily Summary

Daily Weather History Graph

Daily Weather History Graph

Search for Another Location

Airport:

Trip Planner

Search our weather history database for the weather conditions in past years. The results will help you decide how hot, cold, wet, or windy it might be!

Date:

Astronomy

Oct. 28, 2012 Rise Set
Actual Time 7:21 AM EDT 6:10 PM EDT
Civil Twilight 6:55 AM EDT 6:36 PM EDT
Nautical Twilight 6:25 AM EDT 7:06 PM EDT
Astronomical Twilight 5:55 AM EDT 7:36 PM EDT
Moon 5:26 PM EDT (10/28) 6:13 AM EDT (10/28)
Length of Visible Light 11h 41m
Length of Day
10h 48m
Waxing Gibbous, 99% of the Moon is Illuminated
Oct 28
Waxing Gibbous
Oct 29
Full
Nov 6
Last Quarter
Nov 13
New
Nov 20
First Quarter

Hourly Weather History & Observations

Time (EDT) Temp. Dew Point Humidity Pressure Visibility Wind Dir Wind Speed Gust Speed Precip Events Conditions
12:35 AM 63.5 °F 62.1 °F 95% 29.52 in 3.0 mi NNE 19.6 mph 35.7 mph N/A Rain Rain
12:55 AM 63.5 °F 62.1 °F 95% 29.52 in 4.0 mi NNE 21.9 mph 32.2 mph N/A Rain Light Rain
1:15 AM 63.5 °F 61.9 °F 94% 29.51 in 4.0 mi North 19.6 mph 33.4 mph N/A Rain Rain
1:55 AM 63.3 °F 61.9 °F 95% 29.49 in 4.0 mi North 23.0 mph 32.2 mph N/A Rain Light Rain
2:15 AM 63.5 °F 61.9 °F 94% 29.48 in 4.0 mi NNE 19.6 mph 35.7 mph N/A Rain Light Rain
2:35 AM 63.5 °F 61.9 °F 94% 29.47 in 4.0 mi NNE 23.0 mph 33.4 mph N/A Rain Rain
2:55 AM 63.5 °F 61.9 °F 94% 29.46 in 4.0 mi North 19.6 mph 33.4 mph N/A Rain Rain
3:15 AM 63.3 °F 61.7 °F 94% 29.45 in 4.0 mi North 21.9 mph 38.0 mph N/A Rain Light Rain
3:35 AM 63.1 °F 61.7 °F 95% 29.44 in 4.0 mi North 23.0 mph 39.1 mph N/A Rain Light Rain
3:55 AM 63.0 °F 61.5 °F 95% 29.44 in 3.0 mi North 20.7 mph 40.3 mph N/A Rain Rain
4:15 AM 62.6 °F 61.2 °F 95% 29.44 in 3.0 mi North 21.9 mph 40.3 mph N/A Rain Rain
4:35 AM 62.6 °F 61.2 °F 95% 29.43 in 4.0 mi North 19.6 mph 38.0 mph N/A Rain Light Rain
4:55 AM 62.6 °F 61.0 °F 94% 29.42 in 3.0 mi North 23.0 mph 41.4 mph N/A Rain Rain
5:15 AM 62.6 °F 61.0 °F 94% 29.42 in 4.0 mi North 23.0 mph 34.5 mph N/A Rain Light Rain
5:35 AM 62.6 °F 61.0 °F 94% 29.42 in 4.0 mi North 20.7 mph 38.0 mph N/A Rain Light Rain
5:55 AM 62.6 °F 61.2 °F 95% 29.41 in 4.0 mi North 20.7 mph 48.3 mph N/A Rain Light Rain
6:15 AM 62.4 °F 61.0 °F 95% 29.41 in 3.0 mi North 21.9 mph 35.7 mph N/A Rain Light Rain
6:35 AM 62.6 °F 61.0 °F 94% 29.41 in 4.0 mi North 23.0 mph 40.3 mph N/A Rain Light Rain
6:55 AM 62.6 °F 61.0 °F 94% 29.42 in 3.0 mi North 21.9 mph 40.3 mph N/A Rain Light Rain
7:15 AM 62.2 °F 60.8 °F 95% 29.42 in 3.0 mi North 23.0 mph 41.4 mph N/A Rain Light Rain
7:35 AM 62.1 °F 60.8 °F 96% 29.42 in 3.0 mi North 24.2 mph 36.8 mph N/A Rain Light Rain
7:55 AM 61.9 °F 60.8 °F 96% 29.42 in 3.0 mi North 26.5 mph 40.3 mph N/A Rain Light Rain
8:15 AM 61.7 °F 60.4 °F 96% 29.42 in 2.0 mi North 21.9 mph 44.9 mph N/A Rain Rain
8:35 AM 61.7 °F 60.3 °F 95% 29.42 in 1.8 mi North 21.9 mph 36.8 mph N/A Rain Rain
8:55 AM 61.5 °F 60.3 °F 96% 29.42 in 2.0 mi North 21.9 mph 46.0 mph N/A Rain Light Rain
9:15 AM 61.2 °F 60.1 °F 96% 29.42 in 2.5 mi North 24.2 mph 46.0 mph N/A Rain Light Rain
9:35 AM 61.2 °F 60.1 °F 96% 29.41 in 2.0 mi North 20.7 mph 39.1 mph N/A Rain Light Rain
9:55 AM 61.2 °F 60.1 °F 96% 29.40 in 2.0 mi North 18.4 mph 38.0 mph N/A Rain Rain
10:15 AM 61.5 °F 60.3 °F 96% 29.40 in 1.8 mi North 20.7 mph 38.0 mph N/A Rain Rain
10:35 AM 61.5 °F 60.3 °F 96% 29.40 in 1.5 mi North 26.5 mph 39.1 mph N/A Rain Rain
10:55 AM 61.7 °F 60.4 °F 96% 29.40 in 1.2 mi North 24.2 mph 44.9 mph N/A Rain Heavy Rain
11:15 AM 61.5 °F 60.3 °F 96% 29.39 in 1.5 mi North 21.9 mph 40.3 mph N/A Rain Rain
11:35 AM 61.5 °F 60.4 °F 96% 29.38 in 1.5 mi North 25.3 mph 40.3 mph N/A Rain Rain
11:55 AM 61.7 °F 60.4 °F 96% 29.38 in 1.5 mi North 20.7 mph 43.7 mph N/A Rain Rain
12:15 PM 61.2 °F 60.1 °F 96% 29.36 in 1.8 mi North 25.3 mph 39.1 mph N/A Rain Rain
12:35 PM 61.0 °F 59.9 °F 96% 29.35 in 1.8 mi North 24.2 mph 35.7 mph N/A Rain Heavy Rain
1:15 PM 61.2 °F 60.1 °F 96% 29.34 in 1.8 mi North 23.0 mph 40.3 mph N/A Rain Heavy Rain
1:35 PM 61.2 °F 60.1 °F 96% 29.34 in 1.2 mi North 25.3 mph 42.6 mph N/A Rain Heavy Rain
1:55 PM 61.2 °F 60.1 °F 96% 29.34 in 1.2 mi North 21.9 mph 36.8 mph N/A Rain Heavy Rain
2:15 PM 61.0 °F 59.9 °F 96% 29.33 in 1.2 mi North 18.4 mph 41.4 mph N/A Rain Heavy Rain
2:35 PM 61.0 °F 59.9 °F 96% 29.32 in 1.5 mi North 23.0 mph 36.8 mph N/A Rain Rain
2:55 PM 60.8 °F 59.7 °F 96% 29.31 in 1.8 mi North 23.0 mph 48.3 mph N/A Rain Heavy Rain
3:15 PM 60.6 °F 59.4 °F 96% 29.31 in 1.5 mi North 23.0 mph 47.2 mph N/A Rain Rain
3:35 PM 60.3 °F 59.2 °F 96% 29.31 in 1.2 mi NNW 23.0 mph 42.6 mph N/A Rain Heavy Rain
3:55 PM 59.9 °F 58.8 °F 96% 29.31 in 2.0 mi North 21.9 mph 39.1 mph N/A Rain Rain
4:15 PM 59.7 °F 58.6 °F 96% 29.31 in 1.2 mi NNW 18.4 mph 46.0 mph N/A Rain Heavy Rain
4:35 PM 59.5 °F 58.6 °F 97% 29.32 in 1.5 mi North 24.2 mph 46.0 mph N/A Rain Heavy Rain
4:55 PM 59.5 °F 58.6 °F 97% 29.32 in 1.5 mi North 19.6 mph 40.3 mph N/A Rain Heavy Rain
5:15 PM 59.5 °F 58.6 °F 97% 29.32 in 1.5 mi NNW 21.9 mph 44.9 mph N/A Rain Heavy Rain
5:35 PM 59.4 °F 58.5 °F 97% 29.32 in 1.8 mi NNW 19.6 mph 42.6 mph N/A Rain Rain
5:55 PM 59.2 °F 58.3 °F 97% 29.31 in 3.0 mi NNW 23.0 mph 44.9 mph N/A Rain Rain
6:15 PM 59.0 °F 58.1 °F 97% 29.31 in 2.0 mi NNW 27.6 mph 44.9 mph N/A Rain Heavy Rain
6:35 PM 58.8 °F 57.9 °F 97% 29.32 in 2.5 mi NNW 25.3 mph 42.6 mph N/A Rain Rain
6:55 PM 58.6 °F 57.7 °F 97% 29.32 in 3.0 mi NNW 23.0 mph 39.1 mph N/A Rain Rain
7:15 PM 58.8 °F 57.9 °F 97% 29.33 in 3.0 mi NNW 25.3 mph 36.8 mph N/A Rain Rain
7:35 PM 59.0 °F 58.1 °F 97% 29.32 in 3.0 mi NNW 18.4 mph 39.1 mph N/A Rain Rain
7:55 PM 59.0 °F 58.1 °F 97% 29.32 in 3.0 mi NNW 21.9 mph 38.0 mph N/A Rain Rain
8:15 PM 58.8 °F 57.7 °F 96% 29.31 in 3.0 mi NNW 24.2 mph 43.7 mph N/A Rain Heavy Rain
8:35 PM 58.6 °F 57.6 °F 96% 29.31 in 3.0 mi NNW 21.9 mph 43.7 mph N/A Rain Rain
8:55 PM 58.5 °F 57.4 °F 96% 29.30 in 3.0 mi NNW 21.9 mph 39.1 mph N/A Rain Rain
9:15 PM 58.5 °F 57.4 °F 96% 29.30 in 3.0 mi NNW 20.7 mph 41.4 mph N/A Rain Rain
9:35 PM 58.5 °F 57.4 °F 96% 29.29 in 4.0 mi NNW 19.6 mph 35.7 mph N/A Rain Rain
9:55 PM 58.5 °F 57.4 °F 96% 29.29 in 4.0 mi NNW 20.7 mph 33.4 mph N/A Rain Rain
10:15 PM 58.6 °F 57.6 °F 96% 29.29 in 4.0 mi NNW 18.4 mph 34.5 mph N/A Rain Light Rain
10:35 PM 58.8 °F 57.6 °F 96% 29.28 in 4.0 mi NNW 18.4 mph 34.5 mph N/A Rain Rain
10:55 PM 58.8 °F 57.4 °F 95% 29.28 in 4.0 mi NNW 20.7 mph 32.2 mph N/A Rain Light Rain
11:35 PM 59.0 °F 57.7 °F 96% 29.26 in 4.0 mi NNW 17.3 mph 39.1 mph N/A Rain Rain
11:55 PM 59.0 °F 57.9 °F 96% 29.24 in 4.0 mi NNW 19.6 mph 33.4 mph N/A Rain Light Rain